Regional Weather Roundup
Issued by NWS Sioux Falls, SD

Home | Current Version | Previous Version | Graphics & Text | Print | Product List | Glossary Off
Versions: 1 2 3 4 5 6 7 8 9 10 11 12 13 14 15 16 17 18 19 20 21 22 23 24 25 26 27 28 29 30 31 32 33 34 35 36 37 38 39 40 41 42 43 44 45 46 47 48 49 50

000
ASUS43 KFSD 201910
RWRFSD

WEATHER ROUNDUP FOR SE SOUTH DAKOTA/SW MINNESOTA/NW IOWA
NATIONAL WEATHER SERVICE SIOUX FALLS SD
200 PM CDT SAT SEP 20 2014

NOTE: "FAIR" INDICATES FEW OR NO CLOUDS BELOW 12,000 FEET WITH NO
SIGNIFICANT WEATHER AND OR OBSTRUCTIONS TO VISIBILITY.


SDZ038>040-050-052>070-202000-
SOUTHEAST SOUTH DAKOTA

CITY           SKY/WX    TMP DP  RH WIND       PRES   REMARKS
CHAMBERLAIN    MOSUNNY   82  49  32 NW23G31   29.95S
HURON          PTSUNNY   83  47  28 W25G32    29.86F
MADISON        FAIR      75  57  53 W16G24    29.90F
MITCHELL       MOSUNNY   83  54  36 W16G24    29.90F
SIOUX FALLS    MOSUNNY   81  54  39 W16G23    29.89F
WINNER         FAIR      84  50  30 W30G37    29.99F
YANKTON        SUNNY     81  57  44 W15       29.92F
$$

MNZ071-072-080-081-089-090-097-098-202000-
SOUTHWEST MINNESOTA

CITY           SKY/WX    TMP DP  RH WIND       PRES   REMARKS
FAIRMONT       SUNNY     79  55  44 NW14      29.84F
JACKSON        SUNNY     79  52  38 W14G23    29.87S
LUVERNE        SUNNY     81  52  36 W18G24    29.89F
MARSHALL       SUNNY     79  54  41 W18       29.82F
MONTEVIDEO     MOSUNNY   81  59  47 NW7       29.82F
PIPESTONE      SUNNY     79  52  38 W21       29.89F
REDWOOD FALLS  SUNNY     78  55  44 W17       29.82F
TRACY          MOSUNNY   79  56  45 W7G18     29.85F
WINDOM         MOSUNNY   79  54  41 W10G18    29.85F
WORTHINGTON    MOSUNNY   77  54  44 W17       29.88F
$$

IAZ001>003-012>014-020>022-031-032-NEZ013-014-SDZ071-202000-
NORTHWEST IOWA

CITY           SKY/WX    TMP DP  RH WIND       PRES   REMARKS
CHEROKEE       SUNNY     80  57  44 NW9G16    29.89F
DENISON        SUNNY     79  63  57 NW8G16    29.90S
ESTHERVILLE    MOSUNNY   79  55  43 NW14      29.85F
LE MARS        SUNNY     81  59  47 W9G18     29.91F
ORANGE CITY    SUNNY     81  54  39 NW14G22   29.91F
SHELDON        SUNNY     81  59  47 W13       29.88F
SIOUX CITY     SUNNY     83  59  44 NW8       29.92S
SPENCER        SUNNY     81  56  42 W18G24    29.87F
$$

ABBREVIATIONS USED IN REMARKS
   TC - TEMPERATURE IN CELSIUS
  WCI - WIND CHILL INDEX
   HX - HEAT INDEX
  VSB - VISIBILITY




USA.gov is the U.S. government's official web portal to all federal, state and local government web resources and services.